FW7705 Weather Reports


Display with metric or nautical units.
time (UTC)temp
F
wind
direction
speed
MPH
gust
MPH
rain 1hr
in
rain 24hr
in
rain mn
in
humidity
%
barometer
mb
20260504060137 44 133 1.0 1.0 0.00 0.00 0.00 61 1010.1
20260504050606 45 113 0.0 1.0 0.00 0.00 0.00 59 1010.1
20260504045559 44 133 1.0 2.0 0.00 0.00 0.00 62 1010.1
20260504045054 44 136 0.0 0.0 0.00 0.00 0.00 63 1010.0
20260504044552 44 136 0.0 0.0 0.00 0.00 0.00 63 1010.3
20260504044049 44 136 1.0 1.0 0.00 0.00 0.00 64 1010.2
20260504043546 45 136 0.0 0.0 0.00 0.00 0.00 62 1010.2
20260504043043 46 136 0.0 1.0 0.00 0.00 0.00 61 1010.2
20260504042540 46 136 1.0 2.0 0.00 0.00 0.00 62 1010.1
20260504042037 46 137 0.0 0.0 0.00 0.00 0.00 61 1010.3
20260504041533 47 136 0.0 0.0 0.00 0.00 0.00 60 1010.3
20260504041029 47 137 0.0 0.0 0.00 0.00 0.00 60 1010.1
20260504040527 48 137 0.0 0.0 0.00 0.00 0.00 58 1010.3
20260504040024 48 137 0.0 0.0 0.00 0.00 0.00 55 1010.2
20260504035521 48 137 0.0 1.0 0.00 0.00 0.00 57 1010.3
20260504035017 49 137 1.0 1.0 0.00 0.00 0.00 55 1010.3
20260504034515 49 145 2.0 2.0 0.00 0.00 0.00 56 1010.2
20260504034011 50 155 1.0 1.0 0.00 0.00 0.00 53 1010.1
20260504033509 50 171 1.0 1.0 0.00 0.00 0.00 50 1010.2
20260504033006 50 171 1.0 1.0 0.00 0.00 0.00 49 1010.2
20260504032503 50 235 0.0 0.0 0.00 0.00 0.00 49 1010.2
20260504032000 51 235 1.0 1.0 0.00 0.00 0.00 51 1010.5
20260504031456 51 235 1.0 2.0 0.00 0.00 0.00 48 1010.3
20260504030953 51 235 1.0 1.0 0.00 0.00 0.00 49 1010.3
20260504030451 52 191 1.0 1.0 0.00 0.00 0.00 49 1010.2
20260504025946 52 195 2.0 2.0 0.00 0.00 0.00 44 1010.4
20260504025443 51 213 2.0 2.0 0.00 0.00 0.00 45 1010.6
20260504024940 52 229 2.0 2.0 0.00 0.00 0.00 45 1010.4
20260504024437 52 288 4.0 4.0 0.00 0.00 0.00 45 1010.5
20260504023934 51 250 4.0 6.0 0.00 0.00 0.00 45 1010.8
20260504023431 51 277 3.0 4.0 0.00 0.00 0.00 47 1010.4
20260504022926 51 261 1.0 2.0 0.00 0.00 0.00 48 1010.8
20260504022423 51 341 3.0 3.0 0.00 0.00 0.00 49 1010.6
20260504021920 51 299 2.0 3.0 0.00 0.00 0.00 49 1010.8
20260504021417 51 272 4.0 4.0 0.00 0.00 0.00 48 1010.8
20260504020914 51 307 6.0 7.0 0.00 0.00 0.00 48 1010.9
20260504020411 51 327 3.0 4.0 0.00 0.00 0.00 48 1011.0
20260504015907 51 290 7.0 9.0 0.00 0.00 0.00 47 1010.7
20260504015403 52 294 4.0 6.0 0.00 0.00 0.00 47 1010.9
20260504014859 52 319 9.0 11.0 0.00 0.00 0.00 46 1011.0
20260504014355 51 275 4.0 8.0 0.00 0.00 0.00 47 1010.9
20260504013853 51 294 5.0 9.0 0.00 0.00 0.00 46 1010.7
20260504013351 51 334 2.0 3.0 0.00 0.00 0.00 48 1010.6
20260504012847 51 355 5.0 8.0 0.00 0.00 0.00 48 1010.7
20260504012345 51 285 2.0 2.0 0.00 0.00 0.00 48 1010.7
20260504011842 51 4 3.0 3.0 0.00 0.00 0.00 48 1010.6
20260504011339 51 302 3.0 4.0 0.00 0.00 0.00 48 1010.7
20260504010835 51 261 4.0 4.0 0.00 0.00 0.00 49 1010.9
20260504010330 50 280 9.0 13.0 0.00 0.00 0.00 49 1010.6
20260504005827 50 325 1.0 2.0 0.00 0.00 0.00 50 1010.5
20260504005324 51 20 0.0 1.0 0.00 0.00 0.00 50 1010.4
20260504004822 51 341 4.0 6.0 0.00 0.00 0.00 48 1010.4
20260504004319 51 1 2.0 2.0 0.00 0.00 0.00 49 1010.4
20260504003815 51 305 3.0 4.0 0.00 0.00 0.00 47 1010.4
20260504003312 52 307 4.0 7.0 0.00 0.00 0.00 47 1010.4
20260504002809 52 348 11.0 16.0 0.00 0.00 0.00 45 1010.2
20260504002306 52 328 9.0 10.0 0.00 0.00 0.00 46 1010.0
20260504001804 52 325 6.0 9.0 0.00 0.00 0.00 45 1010.2
20260504001300 51 337 5.0 7.0 0.00 0.00 0.00 46 1010.2
20260504000757 51 272 2.0 3.0 0.00 0.00 0.00 47 1010.2
20260504000254 50 149 0.0 0.0 0.00 0.00 0.00 49 1009.6
20260503235752 50 124 0.0 0.0 0.00 0.00 0.00 49 1009.8
20260503235249 50 129 0.0 1.0 0.00 0.00 0.00 51 1009.6
20260503234747 50 147 0.0 0.0 0.00 0.00 0.00 51 1009.8
20260503234245 50 143 0.0 0.0 0.00 0.00 0.00 51 1009.7
20260503233742 51 143 1.0 1.0 0.00 0.00 0.00 47 1009.6
20260503233238 52 143 0.0 0.0 0.00 0.00 0.00 46 1009.4
20260503232734 53 154 1.0 1.0 0.00 0.00 0.00 44 1009.4
20260503232232 53 208 3.0 3.0 0.00 0.00 0.00 41 1009.3
20260503231730 54 184 1.0 2.0 0.00 0.00 0.00 41 1009.4
20260503231226 55 231 2.0 3.0 0.00 0.00 0.00 41 1009.4
20260503230722 54 227 3.0 3.0 0.00 0.00 0.00 40 1009.5
20260503230220 53 270 4.0 4.0 0.00 0.00 0.00 40 1009.1
20260503225717 53 223 4.0 4.0 0.00 0.00 0.00 41 1009.3
20260503225217 53 267 2.0 2.0 0.00 0.00 0.00 41 1009.5
20260503224715 53 251 5.0 7.0 0.00 0.00 0.00 41 1009.4
20260503224212 53 247 3.0 3.0 0.00 0.00 0.00 44 1009.7
20260503223710 53 273 3.0 4.0 0.00 0.00 0.00 41 1009.3
20260503223207 54 290 3.0 4.0 0.00 0.00 0.00 41 1009.4
20260503222703 54 296 2.0 2.0 0.00 0.00 0.00 41 1009.5
20260503222201 55 297 4.0 6.0 0.00 0.00 0.00 42 1009.4
20260503221700 55 198 3.0 3.0 0.00 0.00 0.00 41 1009.6
20260503221156 55 314 4.0 4.0 0.00 0.00 0.00 40 1009.7
20260503220653 54 353 2.0 2.0 0.00 0.00 0.00 40 1009.5
20260503220150 54 280 4.0 6.0 0.00 0.00 0.00 39 1009.8
20260503215647 54 271 4.0 6.0 0.00 0.00 0.00 42 1009.6
20260503215143 54 283 4.0 6.0 0.00 0.00 0.00 39 1009.9
20260503214642 54 311 8.0 9.0 0.00 0.00 0.00 41 1009.8
20260503214138 55 323 6.0 7.0 0.00 0.00 0.00 39 1009.8
20260503213637 54 331 5.0 8.0 0.00 0.00 0.00 41 1009.9
20260503213133 54 312 10.0 11.0 0.00 0.00 0.00 40 1009.7
20260503212631 53 327 8.0 9.0 0.00 0.00 0.00 43 1009.9
20260503212128 52 291 5.0 7.0 0.00 0.00 0.00 42 1009.6
20260503211626 53 305 5.0 8.0 0.00 0.00 0.00 42 1009.8
20260503211121 53 282 7.0 9.0 0.00 0.00 0.00 43 1009.9
20260503210618 53 335 4.0 4.0 0.00 0.00 0.00 44 1009.8
20260503210115 51 333 9.0 11.0 0.00 0.00 0.00 44 1010.0
20260503205610 51 319 14.0 18.0 0.00 0.00 0.00 44 1009.8
20260503205107 51 351 9.0 10.0 0.00 0.00 0.00 44 1010.0
20260503204604 51 220 6.0 7.0 0.00 0.00 0.00 44 1009.7
20260503204101 51 271 7.0 9.0 0.00 0.00 0.00 43 1010.0
20260503203558 52 269 3.0 4.0 0.00 0.00 0.00 42 1009.8
20260503203055 52 232 5.0 7.0 0.00 0.00 0.00 41 1009.7
20260503202553 52 280 6.0 8.0 0.00 0.00 0.00 42 1009.8
20260503202051 53 241 5.0 7.0 0.00 0.00 0.00 40 1009.9
20260503201549 53 298 7.0 11.0 0.00 0.00 0.00 40 1009.9
20260503201046 53 321 8.0 11.0 0.00 0.00 0.00 41 1010.0
20260503200541 53 345 8.0 9.0 0.00 0.00 0.00 41 1009.9
20260503200038 52 328 4.0 4.0 0.00 0.00 0.00 42 1010.2
20260503195536 52 290 6.0 7.0 0.00 0.00 0.00 40 1010.2
20260503195032 52 304 7.0 9.0 0.00 0.00 0.00 39 1010.1
20260503194530 52 332 15.0 17.0 0.00 0.00 0.00 39 1010.1
20260503194029 52 306 6.0 9.0 0.00 0.00 0.00 40 1010.0
20260503193527 52 270 6.0 7.0 0.00 0.00 0.00 41 1010.1
20260503193021 52 37 3.0 3.0 0.00 0.00 0.00 39 1010.2
20260503192518 51 308 2.0 3.0 0.00 0.00 0.00 40 1010.3
20260503192014 51 4 6.0 7.0 0.00 0.00 0.00 39 1010.2
20260503191511 51 245 6.0 7.0 0.00 0.00 0.00 38 1010.4
20260503191008 52 313 5.0 7.0 0.00 0.00 0.00 39 1010.3
20260503190505 52 327 7.0 9.0 0.00 0.00 0.00 37 1010.1
20260503190002 51 309 3.0 4.0 0.00 0.00 0.00 45 1010.4
20260503185458 51 305 5.0 7.0 0.00 0.00 0.00 39 1010.4
20260503184957 51 292 8.0 9.0 0.00 0.00 0.00 40 1010.4
20260503184454 51 272 5.0 7.0 0.00 0.00 0.00 39 1010.3
20260503183951 51 224 4.0 4.0 0.00 0.00 0.00 40 1010.6
20260503183447 51 317 5.0 7.0 0.00 0.00 0.00 38 1010.6
20260503182944 52 306 5.0 6.0 0.00 0.00 0.00 39 1010.6
20260503182443 51 234 7.0 13.0 0.00 0.00 0.00 37 1010.7
20260503181940 51 331 5.0 7.0 0.00 0.00 0.00 42 1010.7
20260503181437 51 338 5.0 6.0 0.00 0.00 0.00 37 1010.8
20260503180933 50 305 8.0 10.0 0.00 0.00 0.00 38 1011.0
20260503180431 50 334 6.0 8.0 0.00 0.00 0.00 40 1010.8
20260503175928 51 272 12.0 16.0 0.00 0.00 0.00 36 1011.0
20260503175426 51 309 7.0 9.0 0.00 0.00 0.00 37 1010.9
20260503174922 51 244 8.0 11.0 0.00 0.00 0.00 36 1010.9
20260503174420 50 354 3.0 3.0 0.00 0.00 0.00 45 1011.1
20260503173920 50 313 6.0 8.0 0.00 0.00 0.00 43 1011.2
20260503173417 49 345 7.0 8.0 0.00 0.00 0.00 42 1011.4
20260503172913 49 2 6.0 6.0 0.00 0.00 0.00 43 1011.3
20260503172411 49 349 9.0 11.0 0.00 0.00 0.00 42 1011.5
20260503171907 51 9 8.0 10.0 0.00 0.00 0.00 39 1011.6
20260503171404 49 303 2.0 3.0 0.00 0.00 0.00 49 1011.5
20260503170901 48 344 11.0 13.0 0.00 0.00 0.00 41 1011.8
20260503170357 48 12 3.0 3.0 0.00 0.00 0.00 44 1011.9
20260503150750 45 302 3.0 3.0 0.00 0.00 0.00 48 1012.4
20260503150246 45 336 6.0 7.0 0.00 0.00 0.00 42 1012.4
20260503140210 43 334 9.0 11.0 0.00 0.00 0.00 45 1012.5
20260503131140 42 353 5.0 7.0 0.00 0.00 0.00 50 1012.4
20260503130637 42 292 7.0 8.0 0.00 0.00 0.00 52 1012.6
20260503130135 41 352 5.0 6.0 0.00 0.00 0.00 50 1012.7
20260503110527 36 305 4.0 6.0 0.00 0.00 0.00 79 1012.5
20260503090414 36 359 2.0 3.0 0.00 0.00 0.00 78 1011.6
20260503081341 36 23 4.0 4.0 0.00 0.00 0.00 77 1011.5
20260503080837 36 342 4.0 4.0 0.00 0.00 0.00 77 1011.8
20260503080334 36 23 2.0 2.0 0.00 0.00 0.00 78 1011.8
20260503072811 37 358 2.0 3.0 0.00 0.00 0.00 76 1011.8
20260503072308 37 25 3.0 3.0 0.00 0.00 0.00 76 1011.5
20260503071804 37 346 4.0 4.0 0.00 0.00 0.00 76 1011.6
20260503071301 37 29 3.0 3.0 0.00 0.00 0.00 75 1011.8
20260503070757 37 307 4.0 4.0 0.00 0.00 0.00 76 1011.3
20260503070255 37 358 2.0 2.0 0.00 0.00 0.00 76 1011.5